Location: Baia Mare
(47.6567°N, 23.5850°E)
Time: 17:28:48
(UTC+02:00)

ISS - Pass Details

Date: 27 March 2020
Orbit: 417 x 422 km, 51.6° (Epoch: 07 December)

Event Time Altitude Azimuth Distance (km) Brightness Sun altitude
Rises 19:47:28 0° 283° (WNW) 2,404 2.4 -10.5°
Reaches altitude 10° 19:49:41 10° 291° (WNW) 1,531 0.7 -10.9°
Maximum altitude 19:52:58 41° 3° (N) 638 -2.7 -11.4°
Enters shadow 19:55:35 14° 71° (ENE) 1,283 -1.8 -11.8°
